Time,TemperatureF,DewpointF,PressureIn,WindDirection,WindDirectionDegrees,WindSpeedMPH,WindSpeedGustMPH,Humidity,HourlyPrecipIn,Conditions,Clouds,dailyrainin,SoftwareType,DateUTC
2013-02-28 00:00:00,64.0,61.0,29.93,West,278,0.0,1.0,90,0.00,,,0.00,VWS V14.00,2013-02-28 05:00:00,
2013-02-28 00:05:00,63.9,60.6,29.92,West,278,0.0,1.0,89,0.00,,,0.00,VWS V14.00,2013-02-28 05:05:00,
2013-02-28 00:10:00,63.9,60.9,29.92,West,278,0.0,1.0,90,0.00,,,0.00,VWS V14.00,2013-02-28 05:10:00,
2013-02-28 00:15:00,63.9,60.9,29.92,West,278,0.0,0.0,90,0.00,,,0.00,VWS V14.00,2013-02-28 05:15:00,
2013-02-28 00:20:00,64.0,61.0,29.93,West,278,0.0,0.0,90,0.00,,,0.00,VWS V14.00,2013-02-28 05:20:00,
2013-02-28 00:25:00,63.9,60.9,29.93,West,278,0.0,0.0,90,0.00,,,0.00,VWS V14.00,2013-02-28 05:25:00,
2013-02-28 00:30:00,63.8,60.8,29.92,West,278,0.0,0.0,90,0.00,,,0.00,VWS V14.00,2013-02-28 05:30:00,
2013-02-28 00:35:00,63.7,60.7,29.92,West,278,0.0,0.0,90,0.00,,,0.00,VWS V14.00,2013-02-28 05:35:00,
2013-02-28 00:40:00,63.8,61.1,29.92,West,278,0.0,0.0,91,0.00,,,0.00,VWS V14.00,2013-02-28 05:40:00,
2013-02-28 00:45:00,63.9,60.9,29.92,West,278,0.0,0.0,90,0.00,,,0.00,VWS V14.00,2013-02-28 05:45:00,
2013-02-28 00:50:00,63.6,60.3,29.92,West,278,0.0,1.0,89,0.00,,,0.00,VWS V14.00,2013-02-28 05:50:00,
2013-02-28 00:55:00,63.5,60.2,29.92,West,278,2.0,2.0,89,0.00,,,0.00,VWS V14.00,2013-02-28 05:55:00,
2013-02-28 01:00:00,63.5,59.9,29.92,West,278,4.0,4.0,88,0.00,,,0.00,VWS V14.00,2013-02-28 06:00:00,
2013-02-28 01:05:00,63.4,59.8,29.92,WNW,289,5.0,7.0,88,0.00,,,0.00,VWS V14.00,2013-02-28 06:05:00,
2013-02-28 01:10:00,63.6,59.7,29.92,WNW,294,0.0,7.0,87,0.00,,,0.00,VWS V14.00,2013-02-28 06:10:00,
2013-02-28 01:15:00,63.6,59.7,29.91,WNW,294,0.0,0.0,87,0.00,,,0.00,VWS V14.00,2013-02-28 06:15:00,
2013-02-28 01:20:00,63.6,59.7,29.91,WNW,294,0.0,1.0,87,0.00,,,0.00,VWS V14.00,2013-02-28 06:20:00,
2013-02-28 01:25:00,63.6,59.7,29.91,WNW,294,0.0,5.0,87,0.00,,,0.00,VWS V14.00,2013-02-28 06:25:00,
2013-02-28 01:30:00,63.6,59.7,29.92,WNW,294,0.0,0.0,87,0.00,,,0.00,VWS V14.00,2013-02-28 06:30:00,
2013-02-28 01:35:00,63.5,59.6,29.92,WNW,294,5.0,5.0,87,0.00,,,0.00,VWS V14.00,2013-02-28 06:35:00,
2013-02-28 01:40:00,63.4,59.5,29.92,WNW,294,1.0,5.0,87,0.00,,,0.00,VWS V14.00,2013-02-28 06:40:00,
2013-02-28 01:45:00,63.3,59.4,29.92,NW,304,5.0,7.0,87,0.00,,,0.00,VWS V14.00,2013-02-28 06:45:00,
2013-02-28 01:50:00,63.2,59.3,29.92,NW,324,0.0,9.0,87,0.00,,,0.00,VWS V14.00,2013-02-28 06:50:00,
2013-02-28 01:55:00,63.1,59.2,29.92,NW,324,1.0,9.0,87,0.00,,,0.00,VWS V14.00,2013-02-28 06:55:00,
2013-02-28 02:00:00,62.9,59.0,29.91,NW,324,1.0,2.0,87,0.00,,,0.00,VWS V14.00,2013-02-28 07:00:00,
2013-02-28 02:05:00,62.8,58.9,29.91,NW,324,0.0,4.0,87,0.00,,,0.00,VWS V14.00,2013-02-28 07:05:00,
2013-02-28 02:10:00,62.7,58.8,29.91,NW,324,0.0,4.0,87,0.00,,,0.00,VWS V14.00,2013-02-28 07:10:00,
2013-02-28 02:15:00,62.6,58.7,29.91,NW,324,0.0,1.0,87,0.00,,,0.00,VWS V14.00,2013-02-28 07:15:00,
2013-02-28 02:20:00,62.4,58.8,29.91,NW,324,1.0,4.0,88,0.00,,,0.00,VWS V14.00,2013-02-28 07:20:00,
2013-02-28 02:25:00,62.3,58.7,29.91,NW,324,1.0,6.0,88,0.00,,,0.00,VWS V14.00,2013-02-28 07:25:00,
2013-02-28 02:30:00,62.2,58.6,29.91,NW,324,6.0,6.0,88,0.00,,,0.00,VWS V14.00,2013-02-28 07:30:00,
2013-02-28 02:35:00,62.0,58.1,29.91,NNW,334,0.0,7.0,87,0.00,,,0.00,VWS V14.00,2013-02-28 07:35:00,
2013-02-28 02:40:00,61.9,58.0,29.91,NNW,334,0.0,7.0,87,0.00,,,0.00,VWS V14.00,2013-02-28 07:40:00,
2013-02-28 02:45:00,61.8,57.9,29.91,NNW,334,1.0,2.0,87,0.00,,,0.00,VWS V14.00,2013-02-28 07:45:00,
2013-02-28 02:50:00,61.7,58.1,29.90,NNW,334,0.0,4.0,88,0.00,,,0.00,VWS V14.00,2013-02-28 07:50:00,
2013-02-28 02:55:00,61.6,58.0,29.91,NNW,334,6.0,6.0,88,0.00,,,0.00,VWS V14.00,2013-02-28 07:55:00,
2013-02-28 03:00:00,61.5,57.9,29.91,NNW,334,2.0,2.0,88,0.00,,,0.00,VWS V14.00,2013-02-28 08:00:00,
2013-02-28 03:05:00,61.5,57.9,29.91,NNW,334,4.0,5.0,88,0.00,,,0.00,VWS V14.00,2013-02-28 08:05:00,
2013-02-28 03:10:00,61.4,57.8,29.91,NNW,334,2.0,6.0,88,0.00,,,0.00,VWS V14.00,2013-02-28 08:10:00,
2013-02-28 03:15:00,61.4,57.8,29.91,NNW,334,2.0,4.0,88,0.00,,,0.00,VWS V14.00,2013-02-28 08:15:00,
2013-02-28 03:20:00,61.4,57.8,29.91,NNW,334,0.0,4.0,88,0.00,,,0.00,VWS V14.00,2013-02-28 08:20:00,
2013-02-28 03:25:00,61.2,57.6,29.91,NNW,346,1.0,6.0,88,0.00,,,0.00,VWS V14.00,2013-02-28 08:25:00,
2013-02-28 03:30:00,61.2,57.6,29.91,NNW,346,2.0,4.0,88,0.00,,,0.00,VWS V14.00,2013-02-28 08:30:00,
2013-02-28 03:35:00,61.1,57.5,29.91,NNW,346,0.0,5.0,88,0.00,,,0.00,VWS V14.00,2013-02-28 08:35:00,
2013-02-28 03:40:00,61.0,57.4,29.92,NNW,346,5.0,5.0,88,0.00,,,0.00,VWS V14.00,2013-02-28 08:40:00,
2013-02-28 03:45:00,60.9,57.3,29.91,NNW,346,4.0,4.0,88,0.00,,,0.00,VWS V14.00,2013-02-28 08:45:00,
2013-02-28 03:50:00,60.9,57.0,29.91,NNW,346,2.0,10.0,87,0.00,,,0.00,VWS V14.00,2013-02-28 08:50:00,
2013-02-28 03:55:00,60.8,56.9,29.91,North,355,8.0,10.0,87,0.00,,,0.00,VWS V14.00,2013-02-28 08:55:00,
2013-02-28 04:00:00,60.8,56.6,29.91,North,350,1.0,4.0,86,0.00,,,0.00,VWS V14.00,2013-02-28 09:00:00,
2013-02-28 04:05:00,60.7,56.5,29.91,North,350,4.0,7.0,86,0.00,,,0.00,VWS V14.00,2013-02-28 09:05:00,
2013-02-28 04:10:00,60.7,56.5,29.91,North,350,2.0,7.0,86,0.00,,,0.00,VWS V14.00,2013-02-28 09:10:00,
2013-02-28 04:15:00,60.7,56.5,29.92,North,350,5.0,7.0,86,0.00,,,0.00,VWS V14.00,2013-02-28 09:15:00,
2013-02-28 04:20:00,60.7,56.5,29.92,North,350,4.0,7.0,86,0.00,,,0.00,VWS V14.00,2013-02-28 09:20:00,
2013-02-28 04:25:00,60.6,56.4,29.92,North,350,1.0,7.0,86,0.00,,,0.00,VWS V14.00,2013-02-28 09:25:00,
2013-02-28 04:30:00,60.6,56.4,29.92,North,349,1.0,5.0,86,0.00,,,0.00,VWS V14.00,2013-02-28 09:30:00,
2013-02-28 04:35:00,60.6,56.4,29.92,North,350,1.0,5.0,86,0.00,,,0.00,VWS V14.00,2013-02-28 09:35:00,
2013-02-28 04:40:00,60.6,56.7,29.92,North,355,0.0,7.0,87,0.00,,,0.00,VWS V14.00,2013-02-28 09:40:00,
2013-02-28 04:45:00,60.5,56.3,29.92,North,355,0.0,0.0,86,0.00,,,0.00,VWS V14.00,2013-02-28 09:45:00,
2013-02-28 04:50:00,60.5,56.3,29.92,North,355,0.0,4.0,86,0.00,,,0.00,VWS V14.00,2013-02-28 09:50:00,
2013-02-28 04:55:00,60.4,56.2,29.92,North,355,1.0,4.0,86,0.00,,,0.00,VWS V14.00,2013-02-28 09:55:00,
2013-02-28 05:00:00,60.3,56.1,29.92,North,355,0.0,1.0,86,0.00,,,0.00,VWS V14.00,2013-02-28 10:00:00,
2013-02-28 05:05:00,60.2,56.0,29.92,North,355,1.0,5.0,86,0.00,,,0.00,VWS V14.00,2013-02-28 10:05:00,
2013-02-28 05:10:00,60.2,56.0,29.92,North,355,0.0,5.0,86,0.00,,,0.00,VWS V14.00,2013-02-28 10:10:00,
2013-02-28 05:15:00,60.2,56.0,29.92,North,355,0.0,2.0,86,0.00,,,0.00,VWS V14.00,2013-02-28 10:15:00,
2013-02-28 05:20:00,60.2,56.0,29.92,North,355,1.0,4.0,86,0.00,,,0.00,VWS V14.00,2013-02-28 10:20:00,
2013-02-28 05:25:00,60.2,56.0,29.92,North,355,2.0,4.0,86,0.00,,,0.00,VWS V14.00,2013-02-28 10:25:00,
2013-02-28 05:30:00,60.3,56.1,29.92,North,355,0.0,0.0,86,0.00,,,0.00,VWS V14.00,2013-02-28 10:30:00,
2013-02-28 05:35:00,60.3,56.1,29.92,North,355,0.0,1.0,86,0.00,,,0.00,VWS V14.00,2013-02-28 10:35:00,
2013-02-28 05:40:00,60.4,56.2,29.93,North,355,0.0,1.0,86,0.00,,,0.00,VWS V14.00,2013-02-28 10:40:00,
2013-02-28 05:45:00,60.3,56.1,29.93,North,355,0.0,0.0,86,0.00,,,0.00,VWS V14.00,2013-02-28 10:45:00,
2013-02-28 05:50:00,60.3,56.1,29.93,North,355,0.0,1.0,86,0.00,,,0.00,VWS V14.00,2013-02-28 10:50:00,
2013-02-28 05:55:00,60.3,56.1,29.93,North,355,2.0,4.0,86,0.00,,,0.00,VWS V14.00,2013-02-28 10:55:00,
2013-02-28 06:00:00,60.3,55.8,29.93,North,355,0.0,0.0,85,0.00,,,0.00,VWS V14.00,2013-02-28 11:00:00,
2013-02-28 06:05:00,60.3,56.1,29.93,North,355,1.0,2.0,86,0.00,,,0.00,VWS V14.00,2013-02-28 11:05:00,
2013-02-28 06:10:00,60.3,55.8,29.93,North,355,0.0,4.0,85,0.00,,,0.00,VWS V14.00,2013-02-28 11:10:00,
2013-02-28 06:15:00,60.3,56.1,29.93,North,355,0.0,0.0,86,0.00,,,0.00,VWS V14.00,2013-02-28 11:15:00,
2013-02-28 06:20:00,60.3,56.1,29.93,North,355,0.0,1.0,86,0.00,,,0.00,VWS V14.00,2013-02-28 11:20:00,
2013-02-28 06:25:00,60.2,56.0,29.94,North,355,0.0,2.0,86,0.00,,,0.00,VWS V14.00,2013-02-28 11:25:00,
2013-02-28 06:30:00,60.2,56.0,29.94,North,355,4.0,4.0,86,0.00,,,0.00,VWS V14.00,2013-02-28 11:30:00,
2013-02-28 06:35:00,60.1,55.6,29.94,North,355,0.0,4.0,85,0.00,,,0.00,VWS V14.00,2013-02-28 11:35:00,
2013-02-28 06:40:00,60.1,55.6,29.94,North,355,2.0,4.0,85,0.00,,,0.00,VWS V14.00,2013-02-28 11:40:00,
2013-02-28 06:45:00,60.1,55.6,29.94,North,355,0.0,0.0,85,0.00,,,0.00,VWS V14.00,2013-02-28 11:45:00,
2013-02-28 06:50:00,60.1,55.6,29.95,North,355,0.0,4.0,85,0.00,,,0.00,VWS V14.00,2013-02-28 11:50:00,
2013-02-28 06:55:00,60.2,55.7,29.94,North,355,1.0,4.0,85,0.00,,,0.00,VWS V14.00,2013-02-28 11:55:00,
2013-02-28 07:00:00,60.1,55.6,29.94,North,355,1.0,1.0,85,0.00,,,0.00,VWS V14.00,2013-02-28 12:00:00,
2013-02-28 07:05:00,60.1,55.6,29.95,North,355,4.0,4.0,85,0.00,,,0.00,VWS V14.00,2013-02-28 12:05:00,
2013-02-28 07:10:00,60.0,55.5,29.95,North,355,4.0,5.0,85,0.00,,,0.00,VWS V14.00,2013-02-28 12:10:00,
2013-02-28 07:15:00,60.0,55.5,29.95,North,355,4.0,5.0,85,0.00,,,0.00,VWS V14.00,2013-02-28 12:15:00,
2013-02-28 07:20:00,60.1,55.6,29.95,North,355,4.0,6.0,85,0.00,,,0.00,VWS V14.00,2013-02-28 12:20:00,
2013-02-28 07:25:00,60.2,55.7,29.95,North,355,4.0,6.0,85,0.00,,,0.00,VWS V14.00,2013-02-28 12:25:00,
2013-02-28 07:30:00,60.2,55.7,29.95,North,355,1.0,1.0,85,0.00,,,0.00,VWS V14.00,2013-02-28 12:30:00,
2013-02-28 07:35:00,60.2,55.3,29.95,North,355,1.0,4.0,84,0.00,,,0.00,VWS V14.00,2013-02-28 12:35:00,
2013-02-28 07:40:00,60.3,55.5,29.95,North,355,2.0,4.0,84,0.00,,,0.00,VWS V14.00,2013-02-28 12:40:00,
2013-02-28 07:45:00,60.4,55.5,29.95,North,355,0.0,0.0,84,0.00,,,0.00,VWS V14.00,2013-02-28 12:45:00,
2013-02-28 07:50:00,60.4,55.5,29.95,North,355,0.0,2.0,84,0.00,,,0.00,VWS V14.00,2013-02-28 12:50:00,
2013-02-28 07:55:00,60.5,55.7,29.95,North,355,1.0,4.0,84,0.00,,,0.00,VWS V14.00,2013-02-28 12:55:00,
2013-02-28 08:00:00,60.6,55.8,29.96,North,355,2.0,5.0,84,0.00,,,0.00,VWS V14.00,2013-02-28 13:00:00,
2013-02-28 08:05:00,60.7,55.8,29.96,North,355,0.0,5.0,84,0.00,,,0.00,VWS V14.00,2013-02-28 13:05:00,
2013-02-28 08:10:00,60.8,55.6,29.96,North,355,2.0,5.0,83,0.00,,,0.00,VWS V14.00,2013-02-28 13:10:00,
2013-02-28 08:15:00,60.9,56.0,29.96,North,355,2.0,4.0,84,0.00,,,0.00,VWS V14.00,2013-02-28 13:15:00,
2013-02-28 08:20:00,61.0,55.8,29.96,North,355,5.0,5.0,83,0.00,,,0.00,VWS V14.00,2013-02-28 13:20:00,
2013-02-28 08:25:00,61.1,55.9,29.96,North,355,0.0,5.0,83,0.00,,,0.00,VWS V14.00,2013-02-28 13:25:00,
2013-02-28 08:30:00,61.2,56.0,29.96,North,355,0.0,1.0,83,0.00,,,0.00,VWS V14.00,2013-02-28 13:30:00,
2013-02-28 08:35:00,61.2,56.0,29.96,North,355,2.0,6.0,83,0.00,,,0.00,VWS V14.00,2013-02-28 13:35:00,
2013-02-28 08:40:00,61.3,56.1,29.96,North,355,0.0,6.0,83,0.00,,,0.00,VWS V14.00,2013-02-28 13:40:00,
2013-02-28 08:45:00,61.4,55.9,29.97,North,355,4.0,5.0,82,0.00,,,0.00,VWS V14.00,2013-02-28 13:45:00,
2013-02-28 08:50:00,61.5,56.0,29.97,North,355,4.0,5.0,82,0.00,,,0.00,VWS V14.00,2013-02-28 13:50:00,
2013-02-28 08:55:00,61.6,56.1,29.97,North,355,2.0,6.0,82,0.00,,,0.00,VWS V14.00,2013-02-28 13:55:00,
2013-02-28 09:00:00,61.7,56.2,29.97,North,355,2.0,5.0,82,0.00,,,0.00,VWS V14.00,2013-02-28 14:00:00,
2013-02-28 09:05:00,61.7,55.8,29.97,North,355,1.0,6.0,81,0.00,,,0.00,VWS V14.00,2013-02-28 14:05:00,
2013-02-28 09:10:00,61.8,56.2,29.97,North,355,0.0,6.0,82,0.00,,,0.00,VWS V14.00,2013-02-28 14:10:00,
2013-02-28 09:15:00,61.9,56.0,29.97,North,355,0.0,0.0,81,0.00,,,0.00,VWS V14.00,2013-02-28 14:15:00,
2013-02-28 09:20:00,62.0,56.1,29.97,North,355,0.0,5.0,81,0.00,,,0.00,VWS V14.00,2013-02-28 14:20:00,
2013-02-28 09:25:00,62.1,55.9,29.97,North,355,7.0,7.0,80,0.00,,,0.00,VWS V14.00,2013-02-28 14:25:00,
2013-02-28 09:30:00,62.2,56.0,29.97,North,355,2.0,4.0,80,0.00,,,0.00,VWS V14.00,2013-02-28 14:30:00,
2013-02-28 09:35:00,62.3,56.1,29.97,North,355,0.0,5.0,80,0.00,,,0.00,VWS V14.00,2013-02-28 14:35:00,
2013-02-28 09:40:00,62.4,56.5,29.97,North,355,0.0,5.0,81,0.00,,,0.00,VWS V14.00,2013-02-28 14:40:00,
2013-02-28 09:45:00,62.5,56.6,29.97,North,355,6.0,6.0,81,0.00,,,0.00,VWS V14.00,2013-02-28 14:45:00,
2013-02-28 09:50:00,62.5,56.2,29.97,North,355,1.0,6.0,80,0.00,,,0.00,VWS V14.00,2013-02-28 14:50:00,
2013-02-28 09:55:00,62.4,56.2,29.97,North,355,0.0,6.0,80,0.00,,,0.00,VWS V14.00,2013-02-28 14:55:00,
2013-02-28 10:00:00,62.5,56.6,29.98,North,355,1.0,2.0,81,0.00,,,0.00,VWS V14.00,2013-02-28 15:00:00,
2013-02-28 10:05:00,62.5,56.6,29.98,North,355,1.0,2.0,81,0.00,,,0.00,VWS V14.00,2013-02-28 15:05:00,
2013-02-28 10:10:00,62.5,56.6,29.99,North,355,1.0,6.0,81,0.00,,,0.00,VWS V14.00,2013-02-28 15:10:00,
2013-02-28 10:15:00,62.5,56.2,29.98,North,355,0.0,1.0,80,0.00,,,0.00,VWS V14.00,2013-02-28 15:15:00,
2013-02-28 10:20:00,62.5,56.6,29.99,North,355,0.0,2.0,81,0.00,,,0.00,VWS V14.00,2013-02-28 15:20:00,
2013-02-28 10:25:00,62.7,56.8,29.99,North,355,0.0,2.0,81,0.00,,,0.00,VWS V14.00,2013-02-28 15:25:00,
2013-02-28 10:30:00,62.7,56.5,29.99,North,355,1.0,1.0,80,0.00,,,0.00,VWS V14.00,2013-02-28 15:30:00,
2013-02-28 10:35:00,62.7,56.1,30.00,North,355,0.0,2.0,79,0.00,,,0.00,VWS V14.00,2013-02-28 15:35:00,
2013-02-28 10:40:00,62.8,56.5,29.99,North,355,0.0,2.0,80,0.00,,,0.00,VWS V14.00,2013-02-28 15:40:00,
2013-02-28 10:45:00,62.8,56.5,29.99,North,355,0.0,1.0,80,0.00,,,0.00,VWS V14.00,2013-02-28 15:45:00,
2013-02-28 10:50:00,62.9,56.3,29.98,North,355,0.0,1.0,79,0.00,,,0.00,VWS V14.00,2013-02-28 15:50:00,
2013-02-28 10:55:00,63.0,56.4,29.98,North,355,0.0,5.0,79,0.00,,,0.00,VWS V14.00,2013-02-28 15:55:00,
2013-02-28 11:00:00,63.0,56.4,29.98,North,355,0.0,1.0,79,0.00,,,0.00,VWS V14.00,2013-02-28 16:00:00,
2013-02-28 11:05:00,63.1,56.8,29.97,North,355,4.0,4.0,80,0.00,,,0.00,VWS V14.00,2013-02-28 16:05:00,
2013-02-28 11:10:00,63.2,56.6,29.98,North,355,2.0,4.0,79,0.00,,,0.00,VWS V14.00,2013-02-28 16:10:00,
2013-02-28 11:15:00,63.3,56.7,29.97,North,355,0.0,0.0,79,0.00,,,0.00,VWS V14.00,2013-02-28 16:15:00,
2013-02-28 11:20:00,63.5,56.9,29.98,North,350,4.0,6.0,79,0.00,,,0.00,VWS V14.00,2013-02-28 16:20:00,
2013-02-28 11:25:00,63.8,57.2,29.98,North,351,6.0,6.0,79,0.00,,,0.00,VWS V14.00,2013-02-28 16:25:00,
2013-02-28 11:30:00,64.0,57.0,29.98,North,351,4.0,5.0,78,0.00,,,0.00,VWS V14.00,2013-02-28 16:30:00,
2013-02-28 11:35:00,64.3,57.3,29.98,North,5,2.0,5.0,78,0.00,,,0.00,VWS V14.00,2013-02-28 16:35:00,
2013-02-28 11:40:00,64.3,57.3,29.98,NNE,22,0.0,6.0,78,0.00,,,0.00,VWS V14.00,2013-02-28 16:40:00,
2013-02-28 11:45:00,64.4,57.0,29.97,NNE,22,2.0,3.0,77,0.00,,,0.00,VWS V14.00,2013-02-28 16:45:00,
2013-02-28 11:50:00,64.6,57.2,29.97,NNE,22,0.0,3.0,77,0.00,,,0.00,VWS V14.00,2013-02-28 16:50:00,
2013-02-28 11:55:00,64.9,57.5,29.96,North,355,7.0,8.0,77,0.00,,,0.00,VWS V14.00,2013-02-28 16:55:00,
2013-02-28 12:00:00,65.2,57.1,29.95,North,5,0.0,2.0,75,0.00,,,0.00,VWS V14.00,2013-02-28 17:00:00,
2013-02-28 12:05:00,65.4,57.3,29.96,NNE,14,2.0,6.0,75,0.00,,,0.00,VWS V14.00,2013-02-28 17:05:00,
2013-02-28 12:10:00,65.8,57.7,29.96,NNE,14,1.0,6.0,75,0.00,,,0.00,VWS V14.00,2013-02-28 17:10:00,
2013-02-28 12:15:00,66.4,57.1,29.96,NNE,14,1.0,4.0,72,0.00,,,0.00,VWS V14.00,2013-02-28 17:15:00,
2013-02-28 12:20:00,66.5,55.2,29.95,NNE,24,3.0,7.0,67,0.00,,,0.00,VWS V14.00,2013-02-28 17:20:00,
2013-02-28 12:25:00,66.6,54.1,29.95,NNE,19,5.0,7.0,64,0.00,,,0.00,VWS V14.00,2013-02-28 17:25:00,
2013-02-28 12:30:00,66.9,55.6,29.95,NNE,17,3.0,3.0,67,0.00,,,0.00,VWS V14.00,2013-02-28 17:30:00,
2013-02-28 12:35:00,67.0,54.9,29.94,NNE,17,0.0,5.0,65,0.00,,,0.00,VWS V14.00,2013-02-28 17:35:00,
2013-02-28 12:40:00,67.1,53.2,29.94,WNW,301,4.0,11.0,61,0.00,,,0.00,VWS V14.00,2013-02-28 17:40:00,
2013-02-28 12:45:00,67.2,53.8,29.94,NW,311,7.0,7.0,62,0.00,,,0.00,VWS V14.00,2013-02-28 17:45:00,
2013-02-28 12:50:00,67.5,54.5,29.94,NW,325,2.0,8.0,63,0.00,,,0.00,VWS V14.00,2013-02-28 17:50:00,
2013-02-28 12:55:00,67.6,54.1,29.94,NNW,346,7.0,9.0,62,0.00,,,0.00,VWS V14.00,2013-02-28 17:55:00,
2013-02-28 13:00:00,67.7,54.2,29.94,North,355,4.0,5.0,62,0.00,,,0.00,VWS V14.00,2013-02-28 18:00:00,
2013-02-28 13:05:00,67.9,54.0,29.94,North,355,0.0,5.0,61,0.00,,,0.00,VWS V14.00,2013-02-28 18:05:00,
2013-02-28 13:10:00,68.0,54.5,29.93,NE,46,3.0,7.0,62,0.00,,,0.00,VWS V14.00,2013-02-28 18:10:00,
2013-02-28 13:15:00,68.3,54.8,29.93,NE,46,5.0,5.0,62,0.00,,,0.00,VWS V14.00,2013-02-28 18:15:00,
2013-02-28 13:20:00,68.4,54.0,29.93,North,355,4.0,7.0,60,0.00,,,0.00,VWS V14.00,2013-02-28 18:20:00,
2013-02-28 13:25:00,68.6,55.1,29.93,North,355,6.0,7.0,62,0.00,,,0.00,VWS V14.00,2013-02-28 18:25:00,
2013-02-28 13:30:00,69.2,53.8,29.92,NNW,334,5.0,8.0,58,0.00,,,0.00,VWS V14.00,2013-02-28 18:30:00,
2013-02-28 13:35:00,69.7,54.3,29.92,NW,321,1.0,9.0,58,0.00,,,0.00,VWS V14.00,2013-02-28 18:35:00,
2013-02-28 13:40:00,69.9,54.0,29.92,WNW,288,0.0,9.0,57,0.00,,,0.00,VWS V14.00,2013-02-28 18:40:00,
2013-02-28 13:45:00,70.2,55.2,29.91,WNW,287,5.0,5.0,59,0.00,,,0.00,VWS V14.00,2013-02-28 18:45:00,
2013-02-28 13:50:00,70.4,54.5,29.91,West,280,9.0,11.0,57,0.00,,,0.00,VWS V14.00,2013-02-28 18:50:00,
2013-02-28 13:55:00,70.8,55.8,29.91,WNW,296,1.0,11.0,59,0.00,,,0.00,VWS V14.00,2013-02-28 18:55:00,
2013-02-28 14:00:00,71.0,53.5,29.91,NNW,343,13.0,13.0,54,0.00,,,0.00,VWS V14.00,2013-02-28 19:00:00,
2013-02-28 14:05:00,71.2,53.2,29.91,NW,311,7.0,13.0,53,0.00,,,0.00,VWS V14.00,2013-02-28 19:05:00,
2013-02-28 14:10:00,71.2,53.7,29.91,NW,317,8.0,13.0,54,0.00,,,0.00,VWS V14.00,2013-02-28 19:10:00,
2013-02-28 14:15:00,71.4,53.4,29.91,NW,312,8.0,8.0,53,0.00,,,0.00,VWS V14.00,2013-02-28 19:15:00,
2013-02-28 14:20:00,71.7,54.7,29.91,WNW,289,6.0,11.0,55,0.00,,,0.00,VWS V14.00,2013-02-28 19:20:00,
2013-02-28 14:25:00,71.8,54.3,29.91,WNW,293,8.0,12.0,54,0.00,,,0.00,VWS V14.00,2013-02-28 19:25:00,
2013-02-28 14:30:00,71.5,55.0,29.91,West,277,4.0,5.0,56,0.00,,,0.00,VWS V14.00,2013-02-28 19:30:00,
2013-02-28 14:35:00,71.6,55.6,29.91,WNW,295,6.0,8.0,57,0.00,,,0.00,VWS V14.00,2013-02-28 19:35:00,
2013-02-28 14:40:00,71.8,54.8,29.90,NW,323,6.0,12.0,55,0.00,,,0.00,VWS V14.00,2013-02-28 19:40:00,
2013-02-28 14:45:00,71.9,56.3,29.91,SSW,205,5.0,6.0,58,0.00,,,0.00,VWS V14.00,2013-02-28 19:45:00,
2013-02-28 14:50:00,71.9,55.4,29.91,WSW,244,1.0,11.0,56,0.00,,,0.00,VWS V14.00,2013-02-28 19:50:00,
2013-02-28 14:55:00,72.1,54.6,29.90,West,267,6.0,11.0,54,0.00,,,0.00,VWS V14.00,2013-02-28 19:55:00,
2013-02-28 15:00:00,72.1,54.6,29.90,NW,315,5.0,5.0,54,0.00,,,0.00,VWS V14.00,2013-02-28 20:00:00,
2013-02-28 15:05:00,72.2,57.1,29.90,WSW,248,4.0,8.0,59,0.00,,,0.00,VWS V14.00,2013-02-28 20:05:00,
2013-02-28 15:10:00,72.1,56.5,29.89,WSW,249,1.0,9.0,58,0.00,,,0.00,VWS V14.00,2013-02-28 20:10:00,
2013-02-28 15:15:00,72.3,55.7,29.89,West,262,2.0,5.0,56,0.00,,,0.00,VWS V14.00,2013-02-28 20:15:00,
2013-02-28 15:20:00,72.3,55.7,29.89,NNW,327,5.0,8.0,56,0.00,,,0.00,VWS V14.00,2013-02-28 20:20:00,
2013-02-28 15:25:00,72.6,55.0,29.89,NNW,344,8.0,9.0,54,0.00,,,0.00,VWS V14.00,2013-02-28 20:25:00,
2013-02-28 15:30:00,72.7,55.1,29.89,WNW,290,6.0,6.0,54,0.00,,,0.00,VWS V14.00,2013-02-28 20:30:00,
2013-02-28 15:35:00,72.7,56.1,29.89,WNW,297,7.0,12.0,56,0.00,,,0.00,VWS V14.00,2013-02-28 20:35:00,
2013-02-28 15:40:00,72.6,55.0,29.89,North,360,7.0,12.0,54,0.00,,,0.00,VWS V14.00,2013-02-28 20:40:00,
2013-02-28 15:45:00,72.7,55.6,29.89,SW,227,5.0,6.0,55,0.00,,,0.00,VWS V14.00,2013-02-28 20:45:00,
2013-02-28 15:50:00,72.5,55.4,29.89,WNW,299,4.0,15.0,55,0.00,,,0.00,VWS V14.00,2013-02-28 20:50:00,
2013-02-28 15:55:00,72.5,55.4,29.89,NW,318,0.0,15.0,55,0.00,,,0.00,VWS V14.00,2013-02-28 20:55:00,
2013-02-28 16:00:00,72.6,56.0,29.89,West,259,8.0,8.0,56,0.00,,,0.00,VWS V14.00,2013-02-28 21:00:00,
2013-02-28 16:05:00,72.4,55.3,29.89,West,268,6.0,11.0,55,0.00,,,0.00,VWS V14.00,2013-02-28 21:05:00,
2013-02-28 16:10:00,72.4,55.3,29.89,West,269,4.0,11.0,55,0.00,,,0.00,VWS V14.00,2013-02-28 21:10:00,
2013-02-28 16:15:00,72.3,55.7,29.89,WNW,292,9.0,9.0,56,0.00,,,0.00,VWS V14.00,2013-02-28 21:15:00,
2013-02-28 16:20:00,72.2,55.7,29.89,West,266,4.0,9.0,56,0.00,,,0.00,VWS V14.00,2013-02-28 21:20:00,
2013-02-28 16:25:00,72.1,56.0,29.89,NW,310,5.0,9.0,57,0.00,,,0.00,VWS V14.00,2013-02-28 21:25:00,
2013-02-28 16:30:00,72.1,55.6,29.89,NW,323,5.0,8.0,56,0.00,,,0.00,VWS V14.00,2013-02-28 21:30:00,
2013-02-28 16:35:00,71.9,55.9,29.89,WNW,298,7.0,12.0,57,0.00,,,0.00,VWS V14.00,2013-02-28 21:35:00,
2013-02-28 16:40:00,71.8,55.3,29.89,NW,307,8.0,13.0,56,0.00,,,0.00,VWS V14.00,2013-02-28 21:40:00,
2013-02-28 16:45:00,71.6,56.1,29.89,WNW,290,6.0,7.0,58,0.00,,,0.00,VWS V14.00,2013-02-28 21:45:00,
2013-02-28 16:50:00,71.5,56.0,29.89,NNW,344,7.0,9.0,58,0.00,,,0.00,VWS V14.00,2013-02-28 21:50:00,
2013-02-28 16:55:00,71.4,56.3,29.90,NW,325,2.0,11.0,59,0.00,,,0.00,VWS V14.00,2013-02-28 21:55:00,
2013-02-28 17:00:00,71.4,56.3,29.89,WNW,302,11.0,11.0,59,0.00,,,0.00,VWS V14.00,2013-02-28 22:00:00,
2013-02-28 17:05:00,71.0,56.0,29.89,WSW,247,7.0,13.0,59,0.00,,,0.00,VWS V14.00,2013-02-28 22:05:00,
2013-02-28 17:10:00,70.8,56.7,29.90,WNW,290,7.0,13.0,61,0.00,,,0.00,VWS V14.00,2013-02-28 22:10:00,
2013-02-28 17:15:00,70.8,56.2,29.90,West,269,5.0,8.0,60,0.00,,,0.00,VWS V14.00,2013-02-28 22:15:00,
2013-02-28 17:20:00,70.8,55.3,29.90,WNW,286,7.0,11.0,58,0.00,,,0.00,VWS V14.00,2013-02-28 22:20:00,
2013-02-28 17:25:00,70.6,56.1,29.90,NW,308,1.0,11.0,60,0.00,,,0.00,VWS V14.00,2013-02-28 22:25:00,
2013-02-28 17:30:00,70.6,56.1,29.90,NW,318,5.0,6.0,60,0.00,,,0.00,VWS V14.00,2013-02-28 22:30:00,
2013-02-28 17:35:00,70.4,56.3,29.90,NW,318,4.0,12.0,61,0.00,,,0.00,VWS V14.00,2013-02-28 22:35:00,
2013-02-28 17:40:00,70.3,55.8,29.90,NW,310,2.0,12.0,60,0.00,,,0.00,VWS V14.00,2013-02-28 22:40:00,
2013-02-28 17:45:00,70.1,56.0,29.91,NW,315,9.0,9.0,61,0.00,,,0.00,VWS V14.00,2013-02-28 22:45:00,
2013-02-28 17:50:00,69.6,55.6,29.91,WNW,298,6.0,12.0,61,0.00,,,0.00,VWS V14.00,2013-02-28 22:50:00,
2013-02-28 17:55:00,69.4,55.8,29.91,NW,319,2.0,12.0,62,0.00,,,0.00,VWS V14.00,2013-02-28 22:55:00,
2013-02-28 18:00:00,69.1,55.5,29.91,WNW,300,2.0,2.0,62,0.00,,,0.00,VWS V14.00,2013-02-28 23:00:00,
2013-02-28 18:05:00,68.8,55.7,29.91,West,269,0.0,7.0,63,0.00,,,0.00,VWS V14.00,2013-02-28 23:05:00,
2013-02-28 18:10:00,68.5,55.9,29.91,WNW,296,0.0,9.0,64,0.00,,,0.00,VWS V14.00,2013-02-28 23:10:00,
2013-02-28 18:15:00,68.2,55.1,29.92,West,277,5.0,10.0,63,0.00,,,0.00,VWS V14.00,2013-02-28 23:15:00,
2013-02-28 18:20:00,67.9,55.3,29.91,NW,311,2.0,11.0,64,0.00,,,0.00,VWS V14.00,2013-02-28 23:20:00,
2013-02-28 18:25:00,67.6,55.4,29.91,NW,304,0.0,11.0,65,0.00,,,0.00,VWS V14.00,2013-02-28 23:25:00,
2013-02-28 18:30:00,67.4,55.7,29.91,WNW,286,0.0,0.0,66,0.00,,,0.00,VWS V14.00,2013-02-28 23:30:00,
2013-02-28 18:35:00,67.2,55.9,29.91,West,278,0.0,7.0,67,0.00,,,0.00,VWS V14.00,2013-02-28 23:35:00,
2013-02-28 18:40:00,66.9,56.0,29.91,West,279,1.0,7.0,68,0.00,,,0.00,VWS V14.00,2013-02-28 23:40:00,
2013-02-28 18:45:00,66.7,55.8,29.92,WNW,284,4.0,6.0,68,0.00,,,0.00,VWS V14.00,2013-02-28 23:45:00,
2013-02-28 18:50:00,66.5,56.0,29.91,WNW,292,4.0,6.0,69,0.00,,,0.00,VWS V14.00,2013-02-28 23:50:00,
2013-02-28 18:55:00,66.3,55.8,29.92,WNW,294,2.0,6.0,69,0.00,,,0.00,VWS V14.00,2013-02-28 23:55:00,
2013-02-28 19:00:00,66.1,56.0,29.91,WNW,294,5.0,6.0,70,0.00,,,0.00,VWS V14.00,2013-03-01 00:00:00,
2013-02-28 19:05:00,66.0,56.0,29.91,WNW,284,0.0,9.0,70,0.00,,,0.00,VWS V14.00,2013-03-01 00:05:00,
2013-02-28 19:10:00,65.9,56.2,29.91,WNW,300,4.0,9.0,71,0.00,,,0.00,VWS V14.00,2013-03-01 00:10:00,
2013-02-28 19:15:00,65.8,56.2,29.91,NW,307,0.0,0.0,71,0.00,,,0.00,VWS V14.00,2013-03-01 00:15:00,
2013-02-28 19:20:00,65.7,56.0,29.91,NW,307,0.0,5.0,71,0.00,,,0.00,VWS V14.00,2013-03-01 00:20:00,
2013-02-28 19:25:00,65.6,56.0,29.91,NW,307,0.0,5.0,71,0.00,,,0.00,VWS V14.00,2013-03-01 00:25:00,
2013-02-28 19:30:00,65.5,56.2,29.91,NW,306,4.0,6.0,72,0.00,,,0.00,VWS V14.00,2013-03-01 00:30:00,
2013-02-28 19:35:00,65.4,56.2,29.91,NW,308,1.0,6.0,72,0.00,,,0.00,VWS V14.00,2013-03-01 00:35:00,
2013-02-28 19:40:00,65.3,56.0,29.91,NW,308,0.0,6.0,72,0.00,,,0.00,VWS V14.00,2013-03-01 00:40:00,
2013-02-28 19:45:00,65.1,55.9,29.91,NW,308,0.0,0.0,72,0.00,,,0.00,VWS V14.00,2013-03-01 00:45:00,
2013-02-28 19:50:00,65.0,56.2,29.92,NW,308,0.0,1.0,73,0.00,,,0.00,VWS V14.00,2013-03-01 00:50:00,
2013-02-28 19:55:00,64.9,56.0,29.91,NW,308,0.0,1.0,73,0.00,,,0.00,VWS V14.00,2013-03-01 00:55:00,
2013-02-28 20:00:00,64.8,56.3,29.92,NW,308,0.0,0.0,74,0.00,,,0.00,VWS V14.00,2013-03-01 01:00:00,
2013-02-28 20:05:00,64.6,56.1,29.92,NW,308,0.0,0.0,74,0.00,,,0.00,VWS V14.00,2013-03-01 01:05:00,
2013-02-28 20:10:00,64.4,56.7,29.92,NW,308,0.0,0.0,76,0.00,,,0.00,VWS V14.00,2013-03-01 01:10:00,
2013-02-28 20:15:00,64.1,57.1,29.92,NW,308,0.0,0.0,78,0.00,,,0.00,VWS V14.00,2013-03-01 01:15:00,
2013-02-28 20:20:00,63.8,57.2,29.92,NW,308,0.0,0.0,79,0.00,,,0.00,VWS V14.00,2013-03-01 01:20:00,
2013-02-28 20:25:00,63.6,57.3,29.92,NW,308,0.0,0.0,80,0.00,,,0.00,VWS V14.00,2013-03-01 01:25:00,
2013-02-28 20:30:00,63.3,57.0,29.92,NW,308,0.0,0.0,80,0.00,,,0.00,VWS V14.00,2013-03-01 01:30:00,
2013-02-28 20:35:00,63.1,56.8,29.92,NW,308,0.0,0.0,80,0.00,,,0.00,VWS V14.00,2013-03-01 01:35:00,
2013-02-28 20:40:00,63.1,57.9,29.92,NW,308,0.0,0.0,83,0.00,,,0.00,VWS V14.00,2013-03-01 01:40:00,
2013-02-28 20:45:00,63.0,57.8,29.92,NW,308,0.0,0.0,83,0.00,,,0.00,VWS V14.00,2013-03-01 01:45:00,
2013-02-28 20:50:00,62.7,57.1,29.92,NW,308,0.0,0.0,82,0.00,,,0.00,VWS V14.00,2013-03-01 01:50:00,
2013-02-28 20:55:00,62.5,56.9,29.92,NW,308,0.0,0.0,82,0.00,,,0.00,VWS V14.00,2013-03-01 01:55:00,
2013-02-28 21:00:00,62.5,56.9,29.92,NW,308,0.0,0.0,82,0.00,,,0.00,VWS V14.00,2013-03-01 02:00:00,
2013-02-28 21:05:00,62.5,57.3,29.92,NW,308,0.0,0.0,83,0.00,,,0.00,VWS V14.00,2013-03-01 02:05:00,
2013-02-28 21:10:00,62.5,56.9,29.92,NW,308,0.0,0.0,82,0.00,,,0.00,VWS V14.00,2013-03-01 02:10:00,
2013-02-28 21:15:00,62.5,56.9,29.92,NW,308,0.0,0.0,82,0.00,,,0.00,VWS V14.00,2013-03-01 02:15:00,
2013-02-28 21:20:00,62.5,56.9,29.92,NW,308,0.0,0.0,82,0.00,,,0.00,VWS V14.00,2013-03-01 02:20:00,
2013-02-28 21:25:00,62.7,57.5,29.92,NW,308,0.0,0.0,83,0.00,,,0.00,VWS V14.00,2013-03-01 02:25:00,
2013-02-28 21:30:00,62.8,57.6,29.92,NW,308,0.0,0.0,83,0.00,,,0.00,VWS V14.00,2013-03-01 02:30:00,
2013-02-28 21:35:00,62.9,57.7,29.93,NW,308,0.0,0.0,83,0.00,,,0.00,VWS V14.00,2013-03-01 02:35:00,
2013-02-28 21:40:00,63.1,58.2,29.93,NW,308,0.0,0.0,84,0.00,,,0.00,VWS V14.00,2013-03-01 02:40:00,
2013-02-28 21:45:00,63.1,57.9,29.93,NW,308,0.0,0.0,83,0.00,,,0.00,VWS V14.00,2013-03-01 02:45:00,
2013-02-28 21:50:00,63.0,58.1,29.92,NW,308,0.0,1.0,84,0.00,,,0.00,VWS V14.00,2013-03-01 02:50:00,
2013-02-28 21:55:00,63.1,58.5,29.92,NW,308,0.0,1.0,85,0.00,,,0.00,VWS V14.00,2013-03-01 02:55:00,
2013-02-28 22:00:00,62.9,58.0,29.92,NW,308,0.0,0.0,84,0.00,,,0.00,VWS V14.00,2013-03-01 03:00:00,
2013-02-28 22:05:00,62.9,58.3,29.92,NW,308,0.0,0.0,85,0.00,,,0.00,VWS V14.00,2013-03-01 03:05:00,
2013-02-28 22:10:00,62.9,58.3,29.92,NW,308,0.0,0.0,85,0.00,,,0.00,VWS V14.00,2013-03-01 03:10:00,
2013-02-28 22:15:00,62.8,58.6,29.92,NW,308,0.0,0.0,86,0.00,,,0.00,VWS V14.00,2013-03-01 03:15:00,
2013-02-28 22:20:00,62.5,57.9,29.92,NW,308,0.0,1.0,85,0.00,,,0.00,VWS V14.00,2013-03-01 03:20:00,
2013-02-28 22:25:00,62.1,57.9,29.92,NW,308,0.0,1.0,86,0.00,,,0.00,VWS V14.00,2013-03-01 03:25:00,
2013-02-28 22:30:00,61.9,57.7,29.92,NW,308,0.0,0.0,86,0.00,,,0.00,VWS V14.00,2013-03-01 03:30:00,
2013-02-28 22:35:00,61.8,57.6,29.92,NW,308,0.0,0.0,86,0.00,,,0.00,VWS V14.00,2013-03-01 03:35:00,
2013-02-28 22:40:00,61.6,57.4,29.92,NW,308,0.0,0.0,86,0.00,,,0.00,VWS V14.00,2013-03-01 03:40:00,
2013-02-28 22:45:00,61.5,57.3,29.91,NW,308,0.0,0.0,86,0.00,,,0.00,VWS V14.00,2013-03-01 03:45:00,
2013-02-28 22:50:00,61.6,57.7,29.92,NW,308,0.0,0.0,87,0.00,,,0.00,VWS V14.00,2013-03-01 03:50:00,
2013-02-28 22:55:00,61.6,58.0,29.92,NW,308,0.0,0.0,88,0.00,,,0.00,VWS V14.00,2013-03-01 03:55:00,
2013-02-28 23:00:00,61.6,58.0,29.91,NW,308,0.0,0.0,88,0.00,,,0.00,VWS V14.00,2013-03-01 04:00:00,
2013-02-28 23:05:00,61.7,58.1,29.91,NW,308,0.0,0.0,88,0.00,,,0.00,VWS V14.00,2013-03-01 04:05:00,
2013-02-28 23:10:00,61.7,58.1,29.91,NW,308,0.0,0.0,88,0.00,,,0.00,VWS V14.00,2013-03-01 04:10:00,
2013-02-28 23:15:00,61.8,58.2,29.92,NW,308,0.0,0.0,88,0.00,,,0.00,VWS V14.00,2013-03-01 04:15:00,
2013-02-28 23:20:00,61.8,58.2,29.92,NW,308,0.0,0.0,88,0.00,,,0.00,VWS V14.00,2013-03-01 04:20:00,
2013-02-28 23:25:00,62.0,58.7,29.91,NW,308,0.0,0.0,89,0.00,,,0.00,VWS V14.00,2013-03-01 04:25:00,
2013-02-28 23:30:00,62.1,58.8,29.91,NW,308,0.0,0.0,89,0.00,,,0.00,VWS V14.00,2013-03-01 04:30:00,
2013-02-28 23:35:00,62.2,58.9,29.91,NW,308,0.0,0.0,89,0.00,,,0.00,VWS V14.00,2013-03-01 04:35:00,
2013-02-28 23:40:00,62.3,59.0,29.91,NW,308,0.0,0.0,89,0.00,,,0.00,VWS V14.00,2013-03-01 04:40:00,
2013-02-28 23:45:00,62.3,59.0,29.91,NW,308,0.0,0.0,89,0.00,,,0.00,VWS V14.00,2013-03-01 04:45:00,
2013-02-28 23:50:00,62.3,59.0,29.91,NW,308,0.0,0.0,89,0.00,,,0.00,VWS V14.00,2013-03-01 04:50:00,
2013-02-28 23:55:00,62.3,59.0,29.91,NW,308,0.0,0.0,89,0.00,,,0.00,VWS V14.00,2013-03-01 04:55:00,